TimeCDT,TemperatureF,Dew PointF,Humidity,Sea Level PressureIn,VisibilityMPH,Wind Direction,Wind SpeedMPH,Gust SpeedMPH,PrecipitationIn,Events,Conditions,WindDirDegrees,DateUTC
12:53 AM,54.0,50.0,86,29.93,10.0,ESE,9.2,-,N/A,,Clear,120,2013-09-24 05:53:00
1:53 AM,53.1,48.9,86,29.93,10.0,ESE,8.1,-,N/A,,Clear,120,2013-09-24 06:53:00
2:53 AM,53.1,48.9,86,29.92,10.0,ESE,8.1,-,N/A,,Clear,110,2013-09-24 07:53:00
3:53 AM,53.1,48.0,83,29.91,10.0,ESE,6.9,-,N/A,,Clear,120,2013-09-24 08:53:00
4:53 AM,50.0,48.0,93,29.92,10.0,SE,5.8,-,N/A,,Clear,130,2013-09-24 09:53:00
5:53 AM,50.0,46.9,89,29.91,10.0,ESE,6.9,-,N/A,,Clear,120,2013-09-24 10:53:00
6:53 AM,48.9,46.0,90,29.93,10.0,ESE,5.8,-,N/A,,Clear,110,2013-09-24 11:53:00
7:53 AM,51.1,46.9,86,29.93,10.0,ESE,6.9,-,N/A,,Clear,110,2013-09-24 12:53:00
8:53 AM,55.0,48.9,80,29.94,10.0,ESE,11.5,-,N/A,,Clear,120,2013-09-24 13:53:00
9:53 AM,60.1,50.0,69,29.94,10.0,SE,11.5,-,N/A,,Clear,130,2013-09-24 14:53:00
10:53 AM,64.0,52.0,65,29.94,10.0,East,8.1,-,N/A,,Clear,100,2013-09-24 15:53:00
11:53 AM,68.0,53.1,59,29.93,10.0,ESE,11.5,-,0.00,,Clear,110,2013-09-24 16:53:00
12:53 PM,72.0,53.1,51,29.92,10.0,East,13.8,-,0.00,,Clear,100,2013-09-24 17:53:00
1:53 PM,73.9,52.0,46,29.90,10.0,East,11.5,18.4,N/A,,Clear,100,2013-09-24 18:53:00
2:53 PM,73.9,51.1,45,29.90,10.0,ESE,10.4,18.4,N/A,,Partly Cloudy,120,2013-09-24 19:53:00
3:53 PM,72.0,52.0,49,29.91,10.0,SSE,10.4,-,N/A,,Mostly Cloudy,160,2013-09-24 20:53:00
4:53 PM,73.0,51.1,46,29.91,10.0,SSE,10.4,-,N/A,,Mostly Cloudy,150,2013-09-24 21:53:00
5:53 PM,72.0,51.1,48,29.92,10.0,East,6.9,-,N/A,,Scattered Clouds,100,2013-09-24 22:53:00
6:53 PM,68.0,52.0,56,29.92,10.0,SE,4.6,-,N/A,,Clear,130,2013-09-24 23:53:00
7:53 PM,61.0,53.1,75,29.94,10.0,ESE,5.8,-,N/A,,Mostly Cloudy,110,2013-09-25 00:53:00
8:53 PM,55.9,52.0,87,29.95,9.0,East,4.6,-,N/A,,Clear,80,2013-09-25 01:53:00
9:53 PM,53.1,51.1,93,29.95,10.0,NNE,3.5,-,N/A,,Clear,30,2013-09-25 02:53:00
10:53 PM,52.0,50.0,93,29.95,10.0,Calm,Calm,-,N/A,,Clear,0,2013-09-25 03:53:00
11:53 PM,48.0,46.9,96,29.95,9.0,Calm,Calm,-,N/A,,Clear,0,2013-09-25 04:53:00